Flight Track Log - Related Links

Times and Time Zones

All times are in EST time to prevent confusion due to time zone crossing. See the AAL970 flight status page for this flight to view local times or setup timezone preferences in your user account.

Time Position Orientation Groundspeed Altitude Reporting Facility
EST Latitude Longitude Course Direction KTS MPH feet Rate Location/Type
01:58PM 39.2833 -94.7167 180° South 158 182 1,700  Level Kansas City TRACON
01:58PM 39.2667 -94.7167 180° South 167 192 2,300 2,800 Climbing Kansas City TRACON
01:59PM 39.1644 -94.7336 187° South 277 319 6,600 3,063 Climbing Kansas City Center
02:01PM 39.1064 -94.7892 217° Southwest 279 321 9,600 2,806 Climbing Kansas City Center
02:02PM 39.0442 -94.8733 226° Southwest 288 331 12,400 2,244 Climbing Kansas City Center
02:03PM 38.9533 -94.8969 191° South 346 398 14,200 2,439 Climbing Kansas City Center
02:04PM 38.8394 -94.9150 187° South 365 420 17,400 2,371 Climbing Kansas City Center
02:05PM 38.7392 -94.9306 187° South 374 430 19,100 2,032 Climbing Kansas City Center
02:06PM 38.6397 -94.9650 195° South 383 441 21,600 1,984 Climbing Kansas City Center
02:07PM 38.5208 -95.0053 195° South 397 457 23,200 1,597 Climbing Kansas City Center
02:08PM 38.4142 -95.0425 195° South 410 472 24,900 1,355 Climbing Kansas City Center
02:09PM 38.2897 -95.0864 195° South 414 476 26,000 1,016 Climbing Kansas City Center
02:10PM 38.1856 -95.1219 195° South 408 470 27,000 1,306 Climbing Kansas City Center
02:11PM 38.0819 -95.2086 213° Southwest 401 461 28,700 1,415 Climbing Kansas City Center
02:12PM 37.9964 -95.2881 216° Southwest 399 459 29,900 1,210 Climbing Kansas City Center
02:13PM 37.9103 -95.3664 216° Southwest 393 452 31,200 1,200 Climbing Kansas City Center
02:14PM 37.8247 -95.4439 216° Southwest 384 442 32,400 1,122 Climbing Kansas City Center
02:15PM 37.7217 -95.5389 216° Southwest 381 438 33,500 780 Climbing Kansas City Center
02:16PM 37.6353 -95.6167 215° Southwest 381 438 34,000 242 Climbing Kansas City Center
02:17PM 37.5486 -95.6944 215° Southwest 382 440 34,000  Level Kansas City Center
02:18PM 37.4617 -95.7736 216° Southwest 384 442 34,000  Level Kansas City Center
02:19PM 37.3756 -95.8525 216° Southwest 384 442 34,000  Level Kansas City Center
02:20PM 37.2900 -95.9294 216° Southwest 380 437 34,000  Level Kansas City Center
02:21PM 37.1881 -96.0208 216° Southwest 377 434 34,000  Level Kansas City Center
02:22PM 37.1031 -96.0967 215° Southwest 376 433 34,000  Level Kansas City Center
02:23PM 37.0178 -96.1714 215° Southwest 375 432 34,000  Level Kansas City Center
02:24PM 36.9331 -96.2481 216° Southwest 376 433 34,000  Level Kansas City Center
02:25PM 36.8478 -96.3225 215° Southwest 376 433 34,000  Level Kansas City Center
02:26PM 36.7628 -96.3983 216° Southwest 375 432 34,000  Level Kansas City Center
02:27PM 36.6789 -96.4736 216° Southwest 373 429 34,000  Level Kansas City Center
02:28PM 36.5767 -96.5639 215° Southwest 374 430 34,000  Level Kansas City Center
02:29PM 36.4897 -96.6372 214° Southwest 377 434 34,000  Level Kansas City Center
02:30PM 36.4028 -96.7156 216° Southwest 383 441 34,000  Level Kansas City Center
02:31PM 36.3186 -96.7883 215° Southwest 382 440 34,000  Level Kansas City Center
02:32PM 36.2319 -96.8619 214° Southwest 379 436 34,000  Level Kansas City Center
02:33PM 36.1447 -96.9372 215° Southwest 381 438 34,000  Level Kansas City Center
02:35PM 36.0417 -97.0261 215° Southwest 378 435 34,000  Level Kansas City Center
02:36PM 35.9550 -97.1028 216° Southwest 381 438 34,000  Level Kansas City Center
02:37PM 35.8669 -97.1778 215° Southwest 384 442 34,000  Level Kansas City Center
02:38PM 35.7783 -97.2514 214° Southwest 385 443 34,000  Level Kansas City Center
02:39PM 35.6914 -97.3286 216° Southwest 387 445 34,000  Level Kansas City Center
02:40PM 35.6033 -97.4022 214° Southwest 386 444 34,000  Level Kansas City Center
02:41PM 35.5014 -97.4903 215° Southwest 382 440 34,000  Level Kansas City Center
02:42PM 35.4153 -97.5622 214° Southwest 383 441 34,000  Level Kansas City Center
02:43PM 35.3200 -97.6061 201° Southwest 388 447 34,000  Level Kansas City Center
02:44PM 35.2128 -97.5892 173° South 395 455 34,000  Level Kansas City Center
02:45PM 35.1056 -97.5742 173° South 390 449 34,000 -43 Level Kansas City Center
02:46PM 34.9553 -97.5522 173° South 390 449 33,900 -468 Descending Fort Worth Center
02:47PM 34.8467 -97.5369 173° South 394 453 32,900 -1,171 Descending Fort Worth Center
02:48PM 34.7386 -97.5217 173° South 392 451 31,500 -1,805 Descending Fort Worth Center
02:49PM 34.6103 -97.5033 173° South 388 447 29,200 -2,081 Descending Fort Worth Center
02:50PM 34.5044 -97.4881 173° South 384 442 27,200 -1,887 Descending Fort Worth Center
02:51PM 34.4006 -97.4736 173° South 378 435 25,300 -1,548 Descending Fort Worth Center
02:52PM 34.2975 -97.4625 175° South 374 430 24,000 -1,024 Descending Fort Worth Center
02:53PM 34.2036 -97.4844 191° South 350 403 23,200 -1,024 Descending Fort Worth Center
02:54PM 34.1008 -97.5028 188° South 343 395 21,900 -1,355 Descending Fort Worth Center
02:55PM 34.0044 -97.5228 190° South 336 387 20,400 -1,463 Descending Fort Worth Center
02:56PM 33.9089 -97.5400 189° South 331 381 18,900 -1,317 Descending Fort Worth Center
02:57PM 33.8150 -97.5594 190° South 328 377 17,700 -1,258 Descending Fort Worth Center
02:58PM 33.7281 -97.5761 189° South 325 374 16,300 -1,355 Descending Fort Worth Center
03:00PM 33.6342 -97.5939 189° South 327 376 14,900 -1,366 Descending Fort Worth Center
03:01PM 33.5364 -97.6125 189° South 330 380 13,500 -1,073 Descending Fort Worth Center
03:02PM 33.4489 -97.6297 189° South 320 368 12,700 -774 Descending Fort Worth Center
03:03PM 33.3603 -97.6200 175° South 338 389 11,900 -792 Descending Fort Worth Center
03:03PM 33.3167 -97.5500 127° Southeast 349 402 11,300 -519 Descending Dallas / Fort Worth TRACON
03:04PM 33.2333 -97.4667 140° Southeast 345 397 11,000 -150 Descending Dallas / Fort Worth TRACON
03:05PM 33.1667 -97.3833 134° Southeast 346 398 11,000  Level Dallas / Fort Worth TRACON
03:06PM 33.1167 -97.3167 132° Southeast 346 398 11,000 -56 Level Dallas / Fort Worth TRACON
03:07PM 33.0500 -97.2500 140° Southeast 345 397 10,900  Descending Dallas / Fort Worth TRACON
03:08PM 33.0000 -97.1833 132° Southeast 246 283 11,000 -600 Climbing Dallas / Fort Worth TRACON
03:09PM 32.9333 -97.1667 168° South 222 255 9,700 -1,339 Descending Dallas / Fort Worth TRACON
03:10PM 32.8667 -97.1667 180° South 230 265 8,300 -1,471 Descending Dallas / Fort Worth TRACON
03:11PM 32.8289 -97.1694 184° South 229 264 7,200 -1,824 Descending Fort Worth Center
03:12PM 32.7678 -97.1583 171° South 229 264 5,200 -1,561 Descending Fort Worth Center
03:13PM 32.7122 -97.1339 160° South 217 250 4,000 -1,065 Descending Fort Worth Center
03:14PM 32.7047 -97.0686 98° East 187 215 3,000 -484 Descending Fort Worth Center
03:15PM 32.7503 -97.0572 12° North 167 192 3,000 -390 Level Fort Worth Center
03:16PM 32.8008 -97.0564 North 169 194 2,200 -780 Descending Fort Worth Center
03:17PM 32.8408 -97.0564 360° North 147 169 1,400 -726 Descending Fort Worth Center
03:18PM 32.8764 -97.0553 North 130 150 700 -677 Descending Fort Worth Center

Login

Don't have an account? Register now (free) for customized features, flight alerts, and more!